IRIDIUM 30 [-]

Last updated on Sat Sep 30 2017 00:33:29 GMT+0000 (Coordinated Universal Time)

1 24949U 97051F 17271.33813138 .24952974 -19063-5 38201-3 0 9992 2 24949 86.3452 238.9858 0025131 154.2013 206.3664 16.46254047 49862

Satellite not in orbit